Tracking 23611 objects as of 18-Sep-2021
HD Live streaming from Space Station
objects crossing your sky now
Track INSPIRATION-4

FLOCK 1C 5

Track FLOCK 1C 5 now!
10-day predictions
FLOCK 1C 5 is classified as:


NORAD ID: 40038
Int'l Code: 2014-033AE
Perigee: 592.9 km
Apogee: 610.7 km
Inclination: 98.0 °
Period: 96.6 minutes
Semi major axis: 6972 km
RCS: Unknown
Launch date: June 19, 2014
Source: United States (US)
Launch site: Orenburg, Russia (OREN)
aabbcc
Your satellite tracking list
Your tracking list is empty




NASA's NSSDC Master Catalog

Two Line Element Set (TLE):
1 40038U 14033AE  21261.07276950  .00000820  00000-0  88633-4 0  9996
2 40038  97.9762 200.9383 0012760 213.3363 146.7052 14.91051910393897
Source of the keplerian elements: AFSPC